Flag for India Weather past 2 weeks in Pudukkottai, Tamil Nadu, India

Now
84 °F

Partly cloudy.


Feels Like: 92 °F
Forecast: 76 / 93 °F
Wind: 3 mph from East

Location: Tiruchchirapalli

Current Time: Apr 25, 2015 at 8:27:20 PM

Latest Report: Apr 25, 2015 at 7:40 PM


Visibility: 4 mi

Pressure: 29.77 "Hg

Humidity: 74%

Dew point: 75 °F

Location of PudukkottaiLocation

Historic Weather in Pudukkottai — Graph

°F

Pudukkottai temperature yesterday

Maximum temperature yesterday: 99 °F (at 2:10 PM)
Minimum temperature yesterday: 81 °F (at 11:40 PM)
Average temperature yesterday: 89 °F

Past Weeks' High & Low Weather Summary

 TemperatureHumidityPressure
High102 °F (Apr 11, 3:10 PM)100% (Apr 13, 2:40 AM)29.98 "Hg (Apr 13, 2:40 AM)
Low70 °F (Apr 18, 2:40 AM)29% (Apr 11, 3:10 PM)29.68 "Hg (Apr 18, 3:10 PM)
Average86 °F68%29.83 "Hg
* Reported Apr 10 6:40 PM — Apr 25 6:40 PM, Pudukkottai, Weather by CustomWeather, © 2015

Note: Actual official high and low records may vary slightly from our data, if they occured in-between our weather recording intervals... More about our weather records

Advertising

Pudukkottai weather history for previous 24 hours

 ConditionsComfort  
Time TempWeatherWind HumidityBarometerVisibility
6:40 PM
Sat, Apr 25
86 °FBroken clouds.3 mph66%29.77 "Hg4 mi
6:10 PM88 °FBroken clouds.No wind62%29.77 "Hg4 mi
5:40 PM88 °FBroken clouds.2 mph62%29.74 "Hg4 mi
5:10 PM90 °FBroken clouds.3 mph55%29.74 "Hg4 mi
4:40 PM90 °FBroken clouds.6 mph55%29.74 "Hg5 mi
4:10 PM90 °FBroken clouds.5 mph55%29.74 "Hg5 mi
3:40 PM90 °FScattered clouds.5 mph59%29.74 "Hg5 mi
3:10 PM88 °FScattered clouds.5 mph62%29.74 "Hg4 mi
2:40 PM88 °FBroken clouds.8 mph59%29.77 "Hg4 mi
2:10 PM86 °FBroken clouds.7 mph62%29.80 "Hg4 mi
1:40 PM84 °FBroken clouds.7 mph66%29.80 "Hg4 mi
1:10 PM84 °FBroken clouds.8 mph66%29.80 "Hg4 mi
12:40 PM84 °FBroken clouds.3 mph66%29.83 "Hg4 mi
12:10 PM82 °FBroken clouds.3 mph70%29.89 "Hg3 mi
11:40 AM82 °FBroken clouds.3 mph70%29.89 "Hg3 mi
11:10 AM82 °FBroken clouds.6 mph66%29.86 "Hg3 mi
10:40 AM81 °FBroken clouds.9 mph70%29.86 "Hg3 mi
9:40 AM77 °FFog.12 mph79%29.86 "Hg3 mi
8:40 AM75 °FFog.15 mph89%29.86 "Hg3 mi
7:40 AM75 °FFog.3 mph83%29.83 "Hg2 mi
7:10 AM73 °FFog.8 mph94%29.83 "Hg2 mi
6:40 AM73 °FFog.7 mph94%29.83 "Hg2 mi
6:10 AM73 °FFog.6 mph94%29.86 "Hg2 mi
5:40 AM73 °FFog.7 mph94%29.86 "Hg2 mi
5:10 AM73 °FFog.6 mph94%29.86 "Hg2 mi
4:40 AM73 °FDrizzle. Mostly cloudy.5 mph94%29.86 "Hg2 mi
4:10 AM73 °FLight rain. Mostly cloudy.3 mph94%29.86 "Hg2 mi
3:40 AM73 °FLight rain. Mostly cloudy.5 mph94%29.86 "Hg2 mi
3:10 AM73 °FLight rain. Mostly cloudy.9 mph94%29.86 "Hg2 mi
1:40 AM79 °FDrizzle. Mostly cloudy.10 mph89%29.86 "Hg3 mi
12:40 AM79 °FLight rain. Mostly cloudy.14 mph89%29.89 "Hg2 mi
11:40 PM
Fri, Apr 24
81 °FFog.15 mph84%29.86 "Hg3 mi
11:10 PM86 °FPartly cloudy.3 mph75%29.83 "Hg4 mi
10:40 PM86 °FPartly cloudy.5 mph75%29.83 "Hg4 mi
10:10 PM86 °FPartly cloudy.5 mph75%29.83 "Hg4 mi
9:40 PM86 °FPartly cloudy.9 mph70%29.80 "Hg4 mi
9:10 PM88 °FPassing clouds.10 mph66%29.83 "Hg4 mi
8:40 PM88 °FPassing clouds.10 mph66%29.83 "Hg4 mi
Weather by CustomWeather, © 2015

See weather overviewHow to use our weather pages